Flag for U.S.A. Weather past 2 weeks in Cape Canaveral, Florida, U.S.A.

Now
80 °F

Sunny.


Feels Like: 83 °F
Forecast: 74 / 85 °F
Wind: 15 mph from Northwest

Location: Cape Kennedy

Current Time: Apr 27, 2015 at 5:34:20 PM

Latest Report: Apr 27, 2015 at 4:58 PM


Visibility: 10 mi

Pressure: 29.81 "Hg

Humidity: 66%

Dew point: 68 °F

Location of Cape CanaveralLocation

Historic Weather in Cape Canaveral — Graph

°F

Cape Canaveral temperature yesterday

Maximum temperature yesterday: 89 °F (at 12:58 PM)
Minimum temperature yesterday: 76 °F (at 3:58 AM)
Average temperature yesterday: 82 °F

Past Weeks' High & Low Weather Summary

 TemperatureHumidityPressure
High89 °F (Apr 18, 1:58 PM)100% (Apr 13, 5:58 AM)30.19 "Hg (Apr 13, 5:58 AM)
Low66 °F (Apr 20, 8:58 PM)50% (Apr 22, 2:58 PM)29.70 "Hg (Apr 26, 5:58 PM)
Average77 °F83%29.97 "Hg
* Reported Apr 12 3:58 PM — Apr 27 3:58 PM, Cape Canaveral, Weather by CustomWeather, © 2015

Note: Actual official high and low records may vary slightly from our data, if they occured in-between our weather recording intervals... More about our weather records

Advertising

Cape Canaveral weather history for previous 24 hours

 ConditionsComfort  
Time TempWeatherWind HumidityBarometerVisibility
3:58 PM
Mon, Apr 27
80 °FSunny.12 mph66%29.80 "Hg10 mi
2:58 PM80 °FSunny.7 mph68%29.79 "Hg10 mi
1:58 PM80 °FPassing clouds.9 mph65%29.79 "Hg10 mi
12:58 PM80 °FPassing clouds.12 mph63%29.80 "Hg10 mi
11:58 AM80 °FSunny.13 mph62%29.80 "Hg10 mi
10:58 AM79 °FSunny.18 mph64%29.82 "Hg10 mi
9:58 AM79 °FSunny.18 mph64%29.83 "Hg10 mi
8:58 AM78 °FSunny.17 mph71%29.80 "Hg10 mi
7:58 AM78 °FSunny.17 mph72%29.77 "Hg10 mi
6:58 AM78 °FClear.15 mph88%29.74 "Hg10 mi
5:58 AM78 °FClear.14 mph88%29.73 "Hg10 mi
4:58 AM78 °FClear.14 mph87%29.72 "Hg10 mi
3:58 AM78 °FClear.7 mph87%29.71 "Hg5 mi
2:58 AM79 °FClear.8 mph86%29.72 "Hg10 mi
1:58 AM79 °FClear.8 mph83%29.71 "Hg10 mi
12:58 AM80 °FClear.10 mph81%29.74 "Hg10 mi
11:58 PM
Sun, Apr 26
80 °FClear.13 mph79%29.75 "Hg10 mi
10:58 PM81 °FClear.13 mph76%29.75 "Hg10 mi
9:58 PM82 °FClear.10 mph75%29.74 "Hg10 mi
8:58 PM83 °FClear.13 mph71%29.74 "Hg10 mi
7:58 PM85 °FSunny.12 mph66%29.72 "Hg10 mi
6:58 PM87 °FSunny.16 mph62%29.71 "Hg10 mi
5:58 PM88 °FSunny.15 mph62%29.70 "Hg10 mi
Weather by CustomWeather, © 2015

See weather overviewHow to use our weather pages